Date,TemperatureHighF,TemperatureAvgF,TemperatureLowF,DewpointHighF,DewpointAvgF,DewpointLowF,HumidityHigh,HumidityAvg,HumidityLow,PressureMaxIn,PressureMinIn,WindSpeedMaxMPH,WindSpeedAvgMPH,GustSpeedMaxMPH,PrecipitationSumIn
2013-1-1,37.9,33.1,24.0,29.0,22.3,12.0,75,65,57,29.90,29.74,12,2,14,0.02
2013-1-2,31.7,24.1,17.4,16.0,12.5,8.0,74,62,52,30.07,29.89,11,1,14,0.01
2013-1-3,26.3,18.6,10.0,15.0,5.2,-1.0,79,57,37,30.12,30.00,4,1,14,0.00
2013-1-4,39.2,31.1,19.3,27.0,22.0,14.0,83,70,55,29.99,29.83,8,2,22,0.08
2013-1-5,44.6,34.3,26.5,27.0,23.3,21.0,83,65,46,30.24,29.87,6,1,13,0.16
2013-1-6,42.9,33.9,26.8,36.0,29.6,22.0,94,85,72,30.20,29.93,11,1,13,0.10
2013-1-7,45.7,34.7,28.1,32.0,27.9,24.0,94,78,47,30.39,29.95,3,0,11,0.01
2013-1-8,47.4,39.1,27.7,37.0,33.1,26.0,94,80,60,30.38,30.28,13,2,19,0.01
2013-1-9,46.3,38.8,27.2,42.0,34.8,26.0,97,86,68,30.37,30.01,12,1,19,0.00
2013-1-10,48.1,42.1,35.1,35.0,26.5,24.0,67,55,42,30.50,30.07,10,2,22,0.00
2013-1-11,41.5,36.4,29.7,38.0,30.4,24.0,95,79,66,30.49,30.19,4,0,10,0.16
2013-1-12,45.7,42.5,39.2,45.0,41.4,38.0,97,96,95,30.20,30.09,6,2,9,0.06
2013-1-13,52.3,47.2,42.9,52.0,46.5,42.0,98,97,94,30.15,30.01,5,1,10,0.02
2013-1-14,60.9,52.4,41.5,56.0,46.9,33.0,98,83,52,30.23,29.93,11,1,12,0.05
2013-1-15,42.3,39.1,37.2,38.0,34.7,31.0,94,84,75,30.27,30.17,5,0,6,0.16
2013-1-16,37.8,35.2,33.2,36.0,33.7,31.0,97,94,76,30.21,29.74,4,0,7,0.55
2013-1-17,44.3,37.5,31.9,35.0,30.9,25.0,96,78,58,30.05,29.85,9,1,13,0.00
2013-1-18,33.2,24.9,18.8,26.0,9.5,1.0,90,55,32,30.47,30.00,9,1,17,0.01
2013-1-19,47.9,38.4,19.9,39.0,29.7,11.0,79,71,58,30.41,29.92,11,3,23,0.01
2013-1-20,54.5,45.6,30.4,42.0,32.7,12.0,85,62,38,29.92,29.58,14,3,21,0.00
2013-1-21,31.2,27.3,22.4,25.0,15.1,9.0,92,63,42,30.09,29.76,4,0,11,0.00
2013-1-22,26.2,21.9,14.8,23.0,9.0,-1.0,92,61,35,30.07,29.72,9,1,18,0.07
2013-1-23,17.2,13.0,8.9,2.0,-3.0,-8.0,64,49,41,30.14,30.05,10,2,16,0.00
2013-1-24,20.9,13.2,5.5,-1.0,-5.0,-7.0,58,45,33,30.20,30.05,8,2,17,0.00
2013-1-25,24.5,18.0,10.3,16.0,0.2,-6.0,86,47,33,30.29,30.03,5,1,16,0.00
2013-1-26,28.2,19.5,13.0,16.0,7.8,-3.0,88,63,36,30.21,29.96,12,1,18,0.03
2013-1-27,33.5,22.1,14.3,8.0,4.9,2.0,63,49,33,30.44,30.21,7,1,15,0.01
2013-1-28,33.5,26.8,17.7,31.0,17.7,4.0,95,71,41,30.43,29.98,7,1,10,0.00
2013-1-29,37.4,34.1,31.3,35.0,32.8,30.0,96,95,91,30.17,29.96,2,0,5,0.18
2013-1-30,58.6,49.5,36.1,56.0,48.3,35.0,98,95,91,30.14,29.54,13,4,24,0.05
2013-1-31,56.3,48.8,32.8,56.0,37.9,14.0,97,69,38,29.61,29.06,32,6,35,0.54